Regional Weather Roundup
Issued by NWS

Home | Current Version | Previous Version | Graphics & Text | Print | Product List | Glossary On
Versions: 1 2 3 4 5 6 7 8 9 10 11 12 13 14 15 16 17 18 19 20 21 22 23 24 25 26 27 28 29 30 31 32 33 34 35 36 37 38 39 40 41 42 43 44 45 46 47 48 49 50
000
ASUS45 KTFX 291804
RWRMT
MONTANA HOURLY WEATHER ROUNDUP
NATIONAL WEATHER SERVICE GREAT FALLS MT
1204 PM MDT FRI AUG 29 2014

NOTE: "FAIR" INDICATES FEW OR NO CLOUDS BELOW 12000 FEET WITH NO
SIGNIFICANT WEATHER AND/OR OBSTRUCTIONS TO VISIBILITY.

* THESE STATIONS ARE NOT UNDER NWS QUALITY CONTROL. THEY DO NOT
   REPORT WEATHER SUCH AS PRECIPITATION OR FOG.

MTZ001>007-043-291900-
WEST OF THE DIVIDE
CITY           SKY/WX    TMP DP  RH WIND       PRES   REMARKS
KALISPELL      PTCLDY    70  50  49 S6        29.96F
MISSOULA       PTCLDY    72  45  38 CALM      30.00F
BUTTE          SUNNY     70  39  32 VRB3      30.10F
MULLAN PASS    SUNNY     63  39  41 N/A       30.09F
* LINCOLN      N/A       63  48  58 SE3        N/A
* LOOKOUT PASS N/A       67  40  37 SE6G11     N/A
* POLSON       N/A       72  52  49 S3         N/A
* RONAN APT    PTCLDY    72  48  43 N/A        N/A
* SEELEY LAKE  N/A       68  46  45 SW3        N/A
* THOMP F APT  SUNNY     67  46  47 S5         N/A
$$

MTZ008-052>055-291900-
SOUTHWEST MONTANA
CITY           SKY/WX    TMP DP  RH WIND       PRES   REMARKS
BOZEMAN        SUNNY     68  48  49 CALM      30.07F
DILLON         SUNNY     68  46  45 VRB3      30.08F
W YELLOWSTONE  PTCLDY    66  45  47 S15       30.20F
* THREE FORKS  PTCLDY    68  68 100 N/A        N/A
* BOULDER HILL N/A       63  38  40 S8         N/A
* MONIDA PASS  N/A       64  46  52 SE13       N/A
* RAYNOLDS PAS N/A       63  44  50 SE17G22    N/A
* WHITEHALL    N/A       70  51  51 S4         N/A
* WISE RIVER   N/A       64  44  48 NW3        N/A
$$

MTZ009>010-012-014-046-048-049-054-291900-
EAST SLOPES AND CENTRAL MONTANA
CITY           SKY/WX    TMP DP  RH WIND       PRES   REMARKS
CUT BANK       SUNNY     64  54  70 SE9       29.99F
GREAT FALLS    SUNNY     70  48  46 S6        30.00F
HELENA         SUNNY     70  50  49 N3        30.03F
MALMSTROM AFB  SUNNY     68  50  53 VRB2      30.02F
* CONRAD       SUNNY     66  55  68 SE9        N/A
* EAST GLACIER N/A       65  44  47 W20G27     N/A
* MONARCH      N/A       66  32  28 SW8        N/A
* PENDROY      N/A       66  46  49 S9G14      N/A
* ROGERS PASS  N/A       66  38  36 SE9G16     N/A
* SAINT MARY   N/A       65  53  65 S5G10      N/A
* SWEET GRASS  N/A       60  56  87 S23G28     N/A
$$

MTZ011-013-016-021-035-040-045-047-050-051-291900-
NORTH CENTRAL MONTANA
CITY           SKY/WX    TMP DP  RH WIND       PRES   REMARKS
HAVRE          SUNNY     66  50  56 CALM      30.01F
LEWISTOWN      SUNNY     70  46  42 E8        30.06F
* CHESTER      N/A       64  49  58 SE7G14     N/A
* DENTON       N/A       66  47  51 SE9        N/A
* GEYSER       N/A       65  46  50 NE6        N/A
* JUDITH GAP   N/A       65  46  50 SE16       N/A
* LOMA         N/A       66  50  56 E11        N/A
$$

MTZ017>020-022>027-061-062-291900-
NORTHEAST MONTANA
CITY           SKY/WX    TMP DP  RH WIND       PRES   REMARKS
GLASGOW        CLOUDY    66  52  61 CALM      30.04F
GLENDIVE       PTSUNNY   64  57  78 NW12      30.03F
JORDAN         SUNNY     66  52  61 VRB5      30.05F
SIDNEY         PTSUNNY   66  57  73 N13       30.01S
WOLF POINT     CLOUDY    70  52  53 NE9       30.02F
* BEAVER HILL  N/A       61  54  78 NW12G17    N/A
* CIRCLE       N/A       65  55  70 N/A        N/A
* LINDSAY DVD  N/A       61  54  78 NW9        N/A
* NAVAJO       N/A       63  49  60 N8G14      N/A
$$

MTZ028>042-056>058-291900-
SOUTHCENTRAL AND SOUTHEAST MONTANA
CITY           SKY/WX    TMP DP  RH WIND       PRES   REMARKS
BAKER          CLOUDY    64  54  70 NW17G26   30.04R
BILLINGS       SUNNY     68  52  57 VRB7      30.08F
LIVINGSTON     SUNNY     70  50  49 E6        30.07F
MILES CITY     CLOUDY    68  52  57 NW13      30.05F
* LAUREL APT   SUNNY     68  50  53 NE5        N/A
* ROUNDUP APT  SUNNY     66  50  56 SE7        N/A
* ALZADA       N/A       70  55  59 W6         N/A
* HYSHAM       N/A       68  46  45 N4G11      N/A
* LAME DEER    N/A       60  53  78 NW4G9      N/A
* REED POINT   N/A       71  51  49 E4G11      N/A
* ROSCOE HILL  N/A       64  43  47 E8         N/A
$$

REGIONAL REPORTS...DAKOTAS
CITY           SKY/WX    TMP DP  RH WIND       PRES   REMARKS
WILLISTON      CLOUDY    70  54  57 N9        29.98F
DICKINSON      CLOUDY    63  55  75 N13       29.97R
BEACH          N/A       61  57  87 NW10      30.03R
CROSBY         PTSUNNY   66  50  56 N9G17     30.00S
TIOGA          PTSUNNY   64  57  78 N12G18    30.01R
WATFORD CITY   PTSUNNY   66  55  68 N10       29.96S
BISMARCK       PTSUNNY   68  61  78 N13       29.87F
GRAND FORKS    FOG       66  64  93 S5        29.76S VSB 3
FARGO          CLOUDY    70  64  81 W7        29.77R
BUFFALO SD     PTSUNNY   70  55  59 NW24      29.93R
RAPID CITY     PTSUNNY   72  52  49 N17G24    30.01R
$$

REGIONAL REPORTS...WYOMING/IDAHO/WASHINGTON
CITY           SKY/WX    TMP DP  RH WIND       PRES   REMARKS
GILLETTE       PTSUNNY   72  54  53 NW8       30.09S
SHERIDAN       PTCLDY    70  52  53 VRB5      30.09F
CODY           SUNNY    N/A N/A N/A SE10      30.10F
YELLOWSTONE LA SUNNY     61  48  62 E7        30.29F
SALMON         SUNNY     68  46  45 NW5       30.02F
MULLAN PASS    SUNNY     63  39  41 N/A       30.09S
SAND POINT     PTCLDY    70  52  53 E5        29.94F
SPOKANE        PTCLDY    73  46  38 S16       29.92F

$$



USA.gov is the U.S. government's official web portal to all federal, state and local government web resources and services.